User: anonymous   Login
Location: Laterina
(43.5167°N, 11.7167°E)
Time: 22:30:40
(UTC+00:00)
Language:

Cosmos 909 Rocket - Orbit

View from above orbital plane
View from above orbital plane
View from above satellite
View from above satellite

Ground track
Ground track

The orbit data is extracted from the following two-line orbital elements,

1 10011U 77036B   20336.93578684 -.00000070  00000-0 -60327-4 0  9991
2 10011  65.8689  36.9630 0692349 103.9518  61.9750 12.32232433937815
Epoch (UTC): 01 December 2020 22:27:31
Eccentricity: 0.0692349
inclination: 65.8689°
perigee height: 991 km
apogee height: 2088 km
right ascension of ascending node: 36.9630°
argument of perigee: 103.9518°
revolutions per day: 12.32232433
mean anomaly at epoch: 61.9750°
orbit number at epoch: 93781

The dashed part of the orbit path shows where the satellite is in the earth's shadow,  

DLR